Location: *
(49.9853°N, 3.5569°E)
Time: 20:23:44
(UTC+00:00)

Cosmos 1825 Rocket - Pass Details

Date: 22 September 2019
Orbit: 603 x 632 km, 82.5° (Epoch: 12 October)

Event Time Altitude Azimuth Distance (km) Brightness Sun altitude
Rises 20:06:37 0° 354° (N) 2,876 7.5 -22.6°
Reaches altitude 10° 20:08:56 10° 0° (N) 1,965 6.5 -23.0°
Enters shadow 20:12:10 40° 37° (NE) 904 4.3 -23.4°
